Terminal Aerodrome Forecast
Issued by NWS Memphis, TN

Home | Current Version | Previous Version | Text Only | Print | Product List | Glossary On
Versions: 1 2 3 4 5 6 7 8 9 10 11 12 13 14 15 16 17 18 19 20 21 22
000
FTUS44 KMEG 061126
TAFMKL
TAF
KMKL 061126Z 0612/0712 21006KT P6SM SCT015
     FM061600 23008KT P6SM SCT030 BKN100
     FM062200 23008KT P6SM VCTS SCT025CB BKN035
     FM070200 19008KT P6SM BKN030 OVC120=

USA.gov is the U.S. government's official web portal to all federal, state and local government web resources and services.